Weather History for Two Harbors, MN

Change the Weather History Date:

Saturday, October 6, 2012

  Actual Average Record
Temperature  
Mean Temperature 36 °F -  
Max Temperature 42 °F 56 °F 77 °F (2004)
Min Temperature 30 °F 39 °F 23 °F (1999)
Degree Days  
Heating Degree Days 29    
Moisture  
Dew Point 24 °F    
Average Humidity 61    
Maximum Humidity 81    
Minimum Humidity 42    
Precipitation  
Precipitation 0.00 in - - ()
Sea Level Pressure  
Sea Level Pressure 30.14 in    
Wind  
Wind Speed 5 mph (NW)    
Max Wind Speed 10 mph    
Max Gust Speed 16 mph    
Visibility 10 miles    
Events Rain    
Averages and records for this station are not official NWS values.
T = Trace of Precipitation, MM = Missing Value Source: NWS Daily Summary

Daily Weather History Graph

Daily Weather History Graph

Search for Another Location

Airport:

Trip Planner

Search our weather history database for the weather conditions in past years. The results will help you decide how hot, cold, wet, or windy it might be!

Date:

Astronomy

Oct. 06, 2012 Rise Set
Actual Time 7:13 AM CDT 6:35 PM CDT
Civil Twilight 6:42 AM CDT 7:06 PM CDT
Nautical Twilight 6:07 AM CDT 7:41 PM CDT
Astronomical Twilight 5:31 AM CDT 8:16 PM CDT
Moon 10:34 PM CDT (10/6) 1:25 PM CDT (10/6)
Length of Visible Light 12h 23m
Length of Day
11h 22m
Waning Gibbous, 65% of the Moon is Illuminated
Oct 6
Waning Gibbous
Oct 8
Last Quarter
Oct 15
New
Oct 21
First Quarter
Oct 29
Full

Hourly Weather History & Observations

Time (CDT) Temp. Windchill Dew Point Humidity Pressure Visibility Wind Dir Wind Speed Gust Speed Precip Events Conditions
12:11 AM 33.8 °F 27.7 °F 26.6 °F 75% 30.01 in 10.0 mi NW 6.9 mph - N/A   Mostly Cloudy
12:29 AM 33.8 °F 28.6 °F 26.6 °F 75% 30.02 in 10.0 mi NW 5.8 mph - N/A   Overcast
12:41 AM 33.8 °F 29.6 °F 28.4 °F 81% 30.02 in 10.0 mi WNW 4.6 mph - N/A   Overcast
1:21 AM 33.8 °F 28.6 °F 26.6 °F 75% 30.03 in 10.0 mi NW 5.8 mph - N/A   Overcast
4:41 AM 33.8 °F 28.6 °F 26.6 °F 75% 30.08 in 10.0 mi NW 5.8 mph - N/A   Overcast
5:37 AM 32.0 °F 27.5 °F 24.8 °F 75% 30.09 in 10.0 mi NW 4.6 mph - N/A   Scattered Clouds
5:52 AM 32.0 °F 27.5 °F 24.8 °F 75% 30.09 in 10.0 mi WNW 4.6 mph - N/A   Clear
6:11 AM 32.0 °F 27.5 °F 24.8 °F 75% 30.09 in 10.0 mi NW 4.6 mph - N/A   Scattered Clouds
6:31 AM 32.0 °F 28.7 °F 24.8 °F 75% 30.10 in 10.0 mi NW 3.5 mph - N/A   Mostly Cloudy
6:52 AM 30.2 °F 26.7 °F 24.8 °F 80% 30.11 in 10.0 mi NNW 3.5 mph - N/A   Scattered Clouds
7:11 AM 30.2 °F 25.4 °F 24.8 °F 80% 30.12 in 10.0 mi NW 4.6 mph - N/A   Scattered Clouds
7:31 AM 32.0 °F 27.5 °F 24.8 °F 75% 30.12 in 10.0 mi NW 4.6 mph - N/A   Clear
7:52 AM 33.8 °F 28.6 °F 24.8 °F 70% 30.13 in 10.0 mi NW 5.8 mph - N/A   Scattered Clouds
8:31 AM 35.6 °F 29.9 °F 26.6 °F 70% 30.14 in 10.0 mi NW 6.9 mph - N/A   Mostly Cloudy
8:52 AM 35.6 °F 29.9 °F 26.6 °F 70% 30.15 in 10.0 mi NNW 6.9 mph - N/A   Scattered Clouds
9:11 AM 37.4 °F 31.4 °F 26.6 °F 65% 30.16 in 10.0 mi NNW 8.1 mph - N/A   Scattered Clouds
9:31 AM 39.2 °F 32.5 °F 26.6 °F 61% 30.16 in 10.0 mi NW 10.4 mph 16.1 mph N/A   Mostly Cloudy
9:52 AM 37.4 °F 32.8 °F 26.6 °F 65% 30.17 in 5.0 mi NNW 5.8 mph - N/A Rain Light Rain
10:11 AM 35.6 °F 29.9 °F 26.6 °F 70% 30.18 in 10.0 mi NNW 6.9 mph - N/A   Mostly Cloudy
10:32 AM 39.2 °F 33.6 °F 26.6 °F 61% 30.18 in 10.0 mi North 8.1 mph - N/A   Scattered Clouds
10:51 AM 41.0 °F 37.1 °F 24.8 °F 53% 30.18 in 10.0 mi WNW 5.8 mph - N/A   Mostly Cloudy
11:12 AM 39.2 °F 35.9 °F 24.8 °F 56% 30.19 in 10.0 mi NNW 4.6 mph - N/A   Overcast
11:31 AM 39.2 °F 35.0 °F 23.0 °F 52% 30.19 in 10.0 mi NW 5.8 mph - N/A   Overcast
11:51 AM 42.8 °F 37.5 °F 21.2 °F 42% 30.18 in 10.0 mi North 9.2 mph - N/A   Overcast
12:11 PM 41.0 °F 37.1 °F 21.2 °F 45% 30.18 in 10.0 mi NW 5.8 mph - N/A   Overcast
12:31 PM 39.2 °F 33.0 °F 23.0 °F 52% 30.18 in 10.0 mi West 9.2 mph - N/A   Overcast
12:52 PM 39.2 °F 34.2 °F 23.0 °F 52% 30.18 in 10.0 mi WNW 6.9 mph - N/A   Overcast
1:11 PM 39.2 °F 34.2 °F 24.8 °F 56% 30.18 in 10.0 mi WNW 6.9 mph - N/A   Overcast
1:31 PM 39.2 °F 35.0 °F 24.8 °F 56% 30.18 in 10.0 mi NW 5.8 mph - N/A   Overcast
1:52 PM 39.2 °F 37.0 °F 24.8 °F 56% 30.18 in 10.0 mi NNW 3.5 mph - N/A   Overcast
2:12 PM 39.2 °F 37.0 °F 24.8 °F 56% 30.17 in 10.0 mi NNW 3.5 mph - N/A   Overcast
2:31 PM 41.0 °F 37.1 °F 24.8 °F 53% 30.17 in 10.0 mi NW 5.8 mph - N/A   Overcast
2:51 PM 39.2 °F 34.2 °F 21.2 °F 49% 30.16 in 10.0 mi NW 6.9 mph - N/A   Overcast
3:12 PM 39.2 °F 35.9 °F 23.0 °F 52% 30.16 in 10.0 mi WNW 4.6 mph - N/A   Overcast
3:31 PM 39.2 °F 37.0 °F 24.8 °F 56% 30.17 in 10.0 mi NW 3.5 mph - N/A   Overcast
3:51 PM 39.2 °F 37.0 °F 23.0 °F 52% 30.16 in 10.0 mi NNW 3.5 mph - N/A   Overcast
4:11 PM 41.0 °F 38.0 °F 24.8 °F 53% 30.16 in 10.0 mi West 4.6 mph - N/A   Overcast
4:31 PM 41.0 °F 39.0 °F 24.8 °F 53% 30.15 in 10.0 mi WNW 3.5 mph - N/A   Overcast
4:52 PM 41.0 °F 37.1 °F 23.0 °F 49% 30.15 in 10.0 mi West 5.8 mph - N/A   Overcast
5:11 PM 41.0 °F 37.1 °F 23.0 °F 49% 30.15 in 10.0 mi West 5.8 mph - N/A   Overcast
5:31 PM 41.0 °F 39.0 °F 21.2 °F 45% 30.15 in 10.0 mi WNW 3.5 mph - N/A   Overcast
5:52 PM 41.0 °F 38.0 °F 21.2 °F 45% 30.15 in 10.0 mi West 4.6 mph - N/A   Overcast
6:11 PM 39.2 °F 37.0 °F 21.2 °F 49% 30.15 in 10.0 mi West 3.5 mph - N/A   Overcast
6:31 PM 39.2 °F - 21.2 °F 49% 30.15 in 10.0 mi Calm Calm - N/A   Overcast
6:52 PM 37.4 °F - 21.2 °F 52% 30.15 in 10.0 mi Calm Calm - N/A   Overcast
7:11 PM 35.6 °F - 21.2 °F 56% 30.15 in 10.0 mi Calm Calm - N/A   Overcast
7:31 PM 35.6 °F - 21.2 °F 56% 30.15 in 10.0 mi Calm Calm - N/A   Overcast
7:52 PM 33.8 °F 30.8 °F 21.2 °F 60% 30.15 in 10.0 mi West 3.5 mph - N/A   Mostly Cloudy
8:11 PM 33.8 °F 30.8 °F 21.2 °F 60% 30.15 in 10.0 mi West 3.5 mph - N/A   Scattered Clouds
8:31 PM 32.0 °F 28.7 °F 21.2 °F 64% 30.15 in 10.0 mi West 3.5 mph - N/A   Clear
8:51 PM 32.0 °F 28.7 °F 21.2 °F 64% 30.15 in 10.0 mi WNW 3.5 mph - N/A   Clear
9:11 PM 30.2 °F - 21.2 °F 69% 30.15 in 10.0 mi Calm Calm - N/A   Clear
9:32 PM 30.2 °F 26.7 °F 21.2 °F 69% 30.15 in 10.0 mi WNW 3.5 mph - N/A   Clear
9:51 PM 32.0 °F 28.7 °F 21.2 °F 64% 30.15 in 10.0 mi West 3.5 mph - N/A   Clear
10:11 PM 32.0 °F 27.5 °F 21.2 °F 64% 30.15 in 10.0 mi WNW 4.6 mph - N/A   Clear
10:32 PM 32.0 °F 28.7 °F 21.2 °F 64% 30.14 in 10.0 mi WNW 3.5 mph - N/A   Clear
10:51 PM 32.0 °F 28.7 °F 21.2 °F 64% 30.14 in 10.0 mi West 3.5 mph - N/A   Clear
11:11 PM 32.0 °F 27.5 °F 21.2 °F 64% 30.14 in 10.0 mi West 4.6 mph - N/A   Clear
11:32 PM 30.2 °F 25.4 °F 21.2 °F 69% 30.13 in 10.0 mi West 4.6 mph - N/A   Clear
11:51 PM 30.2 °F 25.4 °F 21.2 °F 69% 30.13 in 10.0 mi West 4.6 mph - N/A   Clear